Tracking 28790 objects as of 19-Apr-2024
HD Live streaming from Space Station
objects crossing your sky now

STARLINK-4505

Track STARLINK-4505 now!
10-day predictions
STARLINK-4505 is classified as:


NORAD ID: 53556
Int'l Code: 2022-101AF
Perigee: 546.0 km
Apogee: 547.9 km
Inclination: 53.2 °
Period: 95.4 minutes
Semi major axis: 6917 km
RCS: Unknown
Launch date: August 19, 2022
Source: United States (US)
Launch site: AIR FORCE EASTERN TEST RANGE (AFETR)
Your satellite tracking list
Your tracking list is empty




NASA's NSSDC Master Catalog

Two Line Element Set (TLE):
1 53556U 22101AF  24110.48995928 -.00005605  00000-0 -33450-3 0  9998
2 53556  53.2168 278.0570 0001390 102.9989 257.1159 15.08822838 92265
Source of the keplerian elements: AFSPC